Theta_e
351 351 354 355 355 355 354 354 354 354 355 355 355 355 354 354 354 353 353 352 352 351 350 350 350 349 349 348 350 349 349 348 348 348 348 350 350 349 350 351 350 350 350 351 350 350 351 351 350 350 351 350 350 350 349 349 348 348 348 348 348 348 347 347 347 347 347 347 347 347 347 347 347 347 346 346 346 345 344 344 344 342 341 339 339
351 353 354 355 354 354 354 354 353 354 354 354 354 354 353 353 353 352 352 351 351 350 350 350 349 349 348 349 350 349 349 348 348 348 349 350 350 349 350 351 350 350 350 351 351 350 351 351 350 350 350 349 349 349 349 349 348 348 348 348 347 347 347 347 347 347 347 347 347 346 346 347 346 346 346 345 344 343 342 343 343 341 340 340 341
354 353 355 354 354 354 354 353 353 353 353 353 353 353 353 352 352 352 351 350 350 350 350 350 349 348 348 349 349 348 349 350 350 350 350 350 350 350 350 351 351 350 350 350 351 351 350 350 350 350 350 350 350 348 349 348 348 347 348 348 347 347 346 346 346 346 346 347 347 347 346 345 345 345 345 344 343 342 341 341 340 340 338 340 341
352 353 354 355 354 354 353 353 352 352 352 352 352 352 352 352 351 350 350 350 349 349 349 348 348 348 349 349 349 348 349 351 351 350 350 350 351 351 351 351 351 351 351 350 350 351 351 350 350 350 350 349 349 349 348 348 348 347 347 347 347 346 345 345 345 346 347 348 347 345 345 346 344 343 343 343 342 342 341 340 339 338 338 339 339
353 353 354 354 355 354 353 352 352 352 351 351 351 351 351 351 350 350 349 349 348 349 348 348 348 347 348 349 347 347 348 350 351 351 352 352 351 351 351 351 351 352 351 351 350 350 350 350 349 349 349 349 349 348 348 348 348 347 347 346 346 345 345 345 345 345 346 346 346 347 343 342 343 340 341 342 341 341 341 339 338 339 339 339 342
353 353 352 353 352 354 352 352 352 351 351 350 350 350 350 349 349 349 349 348 348 348 347 347 347 347 347 347 346 346 346 349 351 351 351 352 352 351 351 351 352 351 351 351 351 350 350 350 349 350 349 349 349 348 348 347 347 347 345 344 344 344 344 344 343 343 342 342 347 339 338 339 337 338 342 344 343 342 341 340 340 338 338 343 343
354 353 352 352 352 351 352 352 351 350 350 350 350 350 350 349 348 349 349 348 348 347 347 347 346 346 346 346 346 345 346 348 349 351 352 352 352 352 352 352 351 351 351 351 351 350 350 350 349 349 349 350 349 349 347 347 346 345 344 344 343 343 342 342 341 339 340 346 342 339 338 337 336 337 343 343 342 340 340 341 342 342 340 340 340
354 353 352 351 352 352 352 351 351 350 350 350 350 349 349 348 348 349 349 348 348 347 347 346 346 346 347 346 346 345 346 346 347 348 351 351 352 352 352 351 351 351 351 350 350 349 349 349 349 349 349 350 348 348 347 346 344 344 343 343 342 341 341 340 338 339 342 339 340 340 339 337 338 337 340 341 340 340 339 340 340 339 339 338 338
353 351 352 351 352 350 351 351 350 350 350 349 349 349 348 348 348 349 348 348 347 347 346 346 346 346 346 346 345 345 345 345 345 347 349 351 352 352 351 351 350 349 349 348 347 347 347 347 348 349 349 349 348 347 346 345 344 343 343 342 342 340 339 338 340 339 340 336 336 338 338 337 337 338 339 337 336 337 337 338 338 337 336 336 336
352 353 353 352 353 352 351 350 350 350 350 349 349 349 349 349 348 348 348 347 347 346 347 347 346 346 346 346 346 345 346 345 344 347 351 351 351 351 352 351 348 348 347 347 346 346 348 348 349 350 349 348 348 347 346 345 343 342 342 341 340 339 338 338 339 343 339 340 339 340 339 339 335 335 335 340 342 343 342 344 344 341 340 338 337
352 353 352 353 352 351 351 351 350 350 349 349 348 349 349 348 348 348 347 347 347 347 347 347 347 346 346 345 344 344 344 345 345 348 349 349 349 349 350 349 348 347 347 346 345 346 348 349 348 349 349 347 346 345 345 344 343 342 341 340 340 339 339 340 346 338 337 335 337 339 337 339 338 338 342 343 343 343 342 342 342 342 342 342 341
351 354 355 353 354 350 351 351 350 350 349 349 350 349 349 348 348 348 347 347 348 347 347 348 347 347 347 346 346 345 345 345 347 348 349 348 348 347 348 348 347 347 347 345 345 346 348 348 347 348 347 347 346 344 344 344 342 342 341 340 339 338 337 339 339 338 339 339 339 340 338 337 340 341 343 343 343 343 342 342 342 342 342 342 340
352 352 354 355 352 351 351 350 350 350 349 349 350 349 349 349 348 349 349 349 349 348 349 349 349 349 348 348 347 347 346 348 349 349 349 349 348 348 348 347 347 347 347 345 345 346 348 348 347 347 347 346 346 345 344 342 341 341 340 339 338 337 338 343 338 339 338 338 339 339 339 342 344 343 343 343 343 342 342 341 341 341 341 339 337
351 352 354 353 351 353 351 350 349 350 350 350 350 349 349 349 349 349 349 349 349 349 349 349 349 349 351 352 351 350 350 349 348 348 348 348 348 347 347 347 346 347 346 345 345 347 347 347 347 348 347 346 345 344 343 342 341 340 339 339 338 337 339 342 341 340 340 339 341 339 339 342 341 341 340 340 341 340 340 339 339 339 339 338 336
352 353 356 354 352 350 352 350 350 349 349 349 349 349 349 349 349 350 349 350 350 349 349 349 349 350 351 351 350 349 349 349 348 347 347 347 347 347 346 346 347 346 346 345 346 347 348 347 347 347 346 345 344 343 342 341 340 339 338 337 337 338 339 338 338 339 338 338 339 338 338 339 339 339 338 338 338 338 337 338 338 338 337 337 336
353 356 355 352 352 352 352 352 350 349 349 349 349 349 349 349 349 350 349 349 350 349 349 349 349 349 350 350 350 349 349 349 349 347 346 347 347 347 346 346 346 346 346 345 346 347 348 348 347 346 346 344 344 342 342 341 340 339 338 337 335 335 338 343 339 339 339 339 339 340 338 338 340 337 337 337 337 337 336 336 336 335 335 335 335
355 354 352 353 353 352 352 352 349 350 349 349 350 349 349 349 349 349 349 349 349 349 349 349 349 350 350 350 349 349 349 350 349 348 347 347 347 346 346 346 345 346 346 346 346 348 349 348 346 346 345 344 343 342 341 341 339 338 338 337 336 335 336 342 339 341 340 339 338 338 338 337 337 338 337 337 336 335 335 335 335 334 334 334 333
353 353 351 352 352 351 352 352 352 351 351 350 350 349 349 349 349 349 349 349 349 349 350 349 350 350 350 349 349 349 350 350 349 349 348 347 346 346 345 345 346 346 345 346 347 348 348 348 347 345 345 344 343 342 341 340 339 337 337 337 336 335 336 341 341 340 340 340 339 339 339 338 337 337 336 336 336 335 336 335 334 333 333 333 334
353 354 352 354 353 354 352 352 352 352 351 350 350 350 350 349 349 350 349 349 349 349 350 350 350 349 349 349 348 349 350 350 350 349 348 347 347 345 345 345 345 345 345 346 347 348 349 348 346 345 345 343 343 342 340 339 338 337 337 336 336 336 336 345 340 339 341 341 340 339 338 338 337 336 336 335 335 334 333 333 335 335 334 333 333
348 353 352 351 350 354 352 351 351 352 352 351 352 350 351 350 350 350 350 349 349 349 350 350 350 349 348 348 348 351 351 352 350 349 348 347 346 345 346 345 344 345 345 346 347 347 348 348 347 345 344 343 342 341 340 339 338 337 336 336 337 337 342 341 339 339 341 339 340 339 338 338 336 335 336 335 334 334 334 333 333 331 332 333 333
346 347 352 351 351 349 352 352 352 354 353 353 352 352 351 350 350 350 350 350 349 349 349 350 349 348 348 348 348 352 351 351 352 350 348 349 347 346 346 345 345 345 345 346 347 348 348 348 346 345 344 343 342 341 340 339 338 337 337 336 337 343 342 341 341 340 340 340 340 336 338 337 335 334 335 334 333 333 333 332 332 333 333 333 332
347 348 348 351 351 349 351 352 353 353 354 353 352 352 352 349 350 349 348 349 350 349 351 350 350 350 348 348 351 352 351 350 350 350 350 350 347 346 345 345 344 345 345 346 346 347 347 347 345 345 343 342 341 342 341 339 339 338 337 337 340 339 343 342 342 339 339 340 339 336 335 335 334 334 334 334 334 334 333 332 333 332 332 332 331
343 347 349 351 351 351 349 350 349 353 354 354 352 353 349 351 351 349 349 347 349 350 348 348 348 347 348 348 351 350 352 352 353 349 349 346 348 346 345 344 344 345 345 345 345 346 346 346 345 344 343 341 343 342 340 339 339 338 337 340 341 340 341 342 340 341 340 338 337 335 334 334 333 333 333 332 333 333 332 332 332 332 331 331 331
344 343 345 350 352 351 353 354 353 355 354 352 352 353 352 352 351 351 350 348 348 351 349 347 347 347 348 351 346 346 349 352 348 347 349 349 348 346 345 344 344 344 343 346 345 346 345 344 344 343 342 343 347 344 342 340 337 337 341 340 338 338 340 341 338 339 340 338 336 334 334 334 333 333 333 334 333 333 332 332 332 332 331 330 331
344 346 346 345 346 354 354 354 354 353 351 352 352 350 350 348 351 350 349 348 349 350 349 350 349 350 350 349 346 343 344 347 346 351 350 349 347 346 346 345 343 343 343 344 343 346 346 345 345 341 343 345 345 346 345 341 340 339 339 339 339 340 340 341 339 338 340 339 337 334 334 334 334 333 333 333 333 332 332 332 332 331 330 329 329
345 343 344 346 347 349 352 352 354 354 354 353 352 351 352 349 349 350 349 349 349 349 348 351 350 352 352 349 347 346 349 345 345 347 349 349 347 344 343 345 344 340 342 341 340 342 344 343 342 342 343 345 346 346 344 339 338 339 339 340 340 340 340 340 338 338 340 338 336 334 334 334 334 333 333 333 333 332 332 331 331 331 330 329 330
341 343 345 347 348 349 351 351 350 352 353 353 352 351 351 351 351 349 347 345 348 349 349 350 352 352 352 351 350 348 345 348 346 346 346 347 347 346 343 344 343 341 340 341 340 342 342 343 343 344 345 344 344 344 342 339 340 339 339 338 339 340 340 338 337 337 338 337 336 333 333 334 332 332 333 334 334 333 333 332 332 331 330 330 330
341 343 345 347 347 349 351 350 349 352 352 354 352 349 351 350 351 348 348 345 347 348 349 350 350 350 351 352 351 348 346 345 341 343 343 346 346 348 346 344 342 342 340 341 338 339 341 344 344 343 342 343 342 342 340 339 339 341 339 340 339 340 339 337 338 339 338 339 337 335 334 333 333 332 332 334 334 334 333 334 332 332 331 331 331
340 342 345 346 346 349 350 348 350 352 353 353 349 346 349 349 350 350 347 347 348 349 349 350 350 350 351 351 350 348 346 345 345 346 347 347 347 347 347 343 342 341 342 339 339 339 341 342 342 342 344 343 342 342 339 337 339 341 340 339 339 338 338 337 338 338 337 337 338 336 333 332 332 333 334 333 334 334 334 333 332 332 332 332 332
341 342 343 345 347 349 349 347 351 352 353 352 349 348 343 348 350 350 349 348 348 350 352 350 350 348 348 349 350 348 346 347 345 346 345 346 348 349 348 344 341 341 342 340 339 338 339 340 340 340 338 340 339 340 339 337 337 341 341 340 338 338 338 337 336 336 337 338 338 333 332 333 334 335 336 335 334 334 333 334 334 334 333 333 332
342 342 342 344 346 346 348 350 351 351 352 350 350 349 350 351 351 351 351 350 350 351 351 350 349 349 349 349 348 347 346 344 345 339 345 346 347 348 346 346 341 340 342 341 342 340 339 339 339 339 339 338 338 339 338 338 339 338 340 339 338 339 338 340 339 338 336 336 337 336 336 334 336 339 340 338 336 336 335 335 334 335 333 332 331
340 341 341 343 344 346 348 349 350 351 350 349 350 350 351 351 351 351 352 350 350 350 350 351 349 349 350 349 348 348 346 346 347 343 345 345 345 345 345 345 341 340 342 341 341 341 339 339 340 341 340 340 340 338 338 335 336 336 338 338 339 338 337 340 339 338 337 337 335 336 337 335 340 341 340 340 339 338 336 335 335 335 334 333 333
342 342 341 342 343 346 347 347 350 351 350 350 350 351 349 348 348 347 349 349 349 350 349 350 349 350 350 348 347 347 346 345 347 346 345 346 346 345 346 347 346 343 342 343 342 341 340 339 342 343 342 341 340 340 339 338 337 338 340 338 338 338 340 340 341 341 338 337 336 335 338 338 341 341 340 339 338 337 338 336 338 335 335 334 334
341 342 342 341 343 345 345 345 346 348 349 350 350 347 347 348 346 347 347 347 348 349 348 350 350 350 350 349 348 347 348 348 345 345 345 346 346 344 345 346 346 347 343 343 341 341 339 338 339 340 338 338 338 340 338 337 336 338 339 339 340 340 341 341 340 340 338 337 337 338 337 340 339 340 340 338 338 338 336 334 334 334 336 335 335
341 340 341 341 342 343 344 344 345 345 346 345 346 347 347 345 345 344 346 350 350 350 349 349 350 350 349 349 349 349 348 348 346 345 344 345 344 344 345 346 347 348 345 341 341 340 339 337 337 336 338 337 336 337 337 337 336 336 337 340 340 340 341 340 341 340 337 338 337 338 340 340 340 341 340 340 339 338 337 336 335 334 335 335 336
339 340 340 340 340 342 344 343 344 344 344 345 346 345 345 345 346 343 347 349 349 348 349 349 349 348 348 347 348 349 350 348 346 345 344 341 343 343 344 346 347 346 345 344 342 340 340 339 339 338 335 336 337 337 338 338 338 337 338 339 339 340 340 340 340 340 339 338 337 338 339 340 341 340 339 339 341 340 337 336 336 335 335 335 336
338 339 340 340 340 340 341 342 342 343 344 344 345 345 345 345 345 345 345 348 348 347 347 349 348 348 347 346 348 349 348 349 348 347 345 342 343 343 345 345 347 345 345 345 343 341 341 340 339 339 339 338 338 339 339 340 339 337 337 339 339 340 341 340 340 339 340 339 339 337 340 340 340 337 339 339 339 338 338 337 336 336 336 335 336
337 340 340 339 339 340 341 341 341 342 342 342 343 344 344 344 345 345 346 346 347 347 346 346 346 347 346 344 347 349 348 347 348 347 346 344 344 344 344 345 345 345 344 344 342 341 342 342 340 340 340 339 337 338 338 339 339 338 337 337 341 341 338 338 339 339 337 338 338 338 339 341 341 341 340 341 341 341 341 337 335 337 337 336 336
337 338 340 339 339 339 340 339 340 341 341 342 342 343 343 343 345 345 345 346 347 346 348 346 344 346 347 344 342 342 342 346 346 345 344 344 343 343 342 343 343 343 343 342 341 341 341 341 339 340 341 340 338 339 338 338 337 337 337 339 341 340 338 338 339 339 338 339 337 338 340 340 340 339 341 341 340 341 339 339 338 337 338 336 337
337 338 337 339 339 339 339 338 339 340 341 342 341 342 342 340 339 343 343 345 345 341 343 345 345 343 344 345 342 342 340 344 344 342 342 340 341 341 343 343 342 342 340 339 340 339 340 341 339 338 339 339 340 339 339 336 335 336 336 339 340 337 338 338 337 339 340 339 339 339 338 338 338 339 340 339 339 338 338 336 337 338 339 337 337
338 339 339 339 338 337 337 336 339 341 341 339 340 342 341 341 341 341 341 343 343 341 341 343 343 344 344 343 341 340 340 341 341 341 342 341 341 340 341 340 340 340 339 338 340 341 342 340 339 336 336 336 337 339 338 336 333 332 335 335 335 336 336 335 333 337 338 337 339 337 336 336 337 338 339 339 336 337 338 339 338 337 337 338 339
335 337 337 338 338 337 336 335 337 338 339 341 341 341 343 342 341 340 343 342 341 340 340 342 343 343 344 344 342 340 338 339 340 341 341 340 340 341 341 340 339 339 340 338 339 339 336 337 337 333 334 335 334 336 335 335 329 326 324 326 328 332 335 335 334 336 338 337 338 338 338 336 335 339 339 336 337 336 338 338 339 339 339 340 340
336 336 337 338 338 337 337 337 337 337 338 339 339 339 340 342 343 343 342 343 344 343 342 343 344 343 342 342 342 342 341 339 340 341 340 340 340 340 340 340 339 339 336 335 338 333 333 332 335 333 331 335 335 337 337 337 330 329 328 324 321 322 328 332 334 333 336 338 339 337 336 335 334 337 337 336 336 338 337 337 339 340 341 341 340
334 335 337 337 337 337 337 336 336 338 338 338 339 340 341 341 343 344 345 343 342 344 344 342 343 342 339 340 341 341 340 339 340 340 340 339 340 338 338 337 337 339 336 337 336 335 331 331 333 334 334 329 331 332 338 338 337 329 322 323 323 324 320 324 326 330 336 336 338 336 336 333 334 334 336 335 334 337 338 336 339 341 341 340 340
330 330 331 332 334 335 337 338 338 338 339 339 339 341 340 340 341 342 342 342 343 341 340 338 340 341 339 340 341 341 340 339 341 341 339 339 339 339 339 337 337 337 334 335 334 332 333 333 332 332 333 331 328 331 333 337 333 337 329 324 318 316 318 322 325 327 333 333 335 335 334 334 332 334 335 334 335 337 336 334 339 340 339 338 337
327 329 330 331 333 334 336 337 339 341 340 342 342 342 340 338 338 337 336 337 336 336 334 334 337 337 337 340 341 340 340 339 339 340 339 339 339 339 339 337 337 336 334 332 334 331 332 332 333 332 330 332 331 329 329 331 333 331 332 330 327 322 321 327 325 319 330 333 333 332 332 334 335 334 334 333 333 334 334 334 338 338 336 335 334
323 326 328 329 331 333 334 335 336 337 339 343 344 342 339 339 338 338 337 336 336 338 340 339 339 339 340 339 340 341 339 339 338 338 339 339 339 339 338 338 337 336 335 333 332 334 332 333 335 331 331 331 330 327 327 329 332 331 332 330 331 330 334 328 322 325 318 326 330 331 330 331 332 332 331 331 332 334 334 335 334 333 335 335 334
321 322 323 326 327 329 332 333 335 335 337 338 340 340 339 339 338 339 339 339 339 337 339 339 339 339 338 338 339 339 339 338 338 338 339 339 339 339 338 337 336 336 335 333 333 336 335 336 334 333 333 333 332 329 328 328 326 326 331 330 331 330 333 333 329 326 323 319 320 329 329 330 332 332 331 330 331 334 333 333 332 331 334 333 333
319 320 321 322 323 324 326 330 332 333 334 336 336 338 338 339 338 338 337 336 338 338 338 338 338 338 338 338 337 337 338 339 338 338 339 339 339 339 337 335 337 336 334 333 334 333 333 333 329 330 333 333 333 334 330 331 330 328 328 329 329 330 329 331 333 332 325 322 320 320 322 330 331 331 331 331 332 334 333 332 333 333 334 334 333
317 319 320 322 323 323 323 325 326 329 331 332 334 336 338 337 336 337 336 336 337 336 337 336 338 338 337 337 338 338 338 338 338 338 338 339 339 339 337 336 336 336 335 335 334 333 333 332 332 334 332 331 333 331 330 332 332 332 332 329 326 329 330 327 329 326 327 325 319 321 325 324 320 325 333 331 332 333 334 334 334 333 334 334 333
318 319 319 320 321 322 323 323 325 326 328 329 332 333 335 335 335 336 336 335 336 336 334 335 336 338 336 336 336 336 337 337 337 338 337 338 338 337 338 337 336 337 336 337 337 337 335 334 336 333 331 333 335 334 332 332 332 333 330 330 331 330 326 324 327 328 327 321 324 323 325 325 325 326 327 331 331 333 334 334 333 333 333 334 331
Wind_Speed
12 14 14 15 12 14 15 15 15 15 15 14 15 15 16 16 16 16 16 16 16 17 17 16 16 15 14 13 14 14 14 14 14 13 13 11 11 12 12 12 12 14 15 17 17 17 17 17 17 17 17 16 16 16 17 17 15 15 16 16 16 16 15 15 15 16 16 16 15 16 16 15 14 14 14 15 14 12 10 10 12 11 10 12 14
14 14 13 14 13 13 15 16 17 15 15 15 15 15 16 16 15 16 16 16 16 16 15 15 15 15 14 13 14 13 14 14 14 13 12 11 12 13 12 13 14 15 17 18 18 18 18 18 18 17 17 17 17 17 17 17 16 16 16 16 16 17 16 15 16 15 15 15 16 16 16 16 15 14 15 16 14 14 13 13 11 10 10 14 16
15 14 13 15 14 13 14 16 16 16 15 15 15 15 16 16 16 17 16 16 16 16 15 14 14 15 14 13 13 13 14 15 14 13 13 13 13 13 13 14 15 16 18 19 19 18 18 19 19 18 17 17 17 17 17 17 17 16 17 16 16 16 16 15 15 15 15 15 15 17 17 17 16 15 15 15 15 15 14 13 13 12 10 15 14
15 13 13 15 14 12 15 15 17 17 16 15 15 15 16 16 16 16 16 16 15 15 15 14 14 13 12 11 12 12 15 15 14 13 13 13 12 14 14 15 15 17 18 19 19 19 19 19 19 18 18 18 18 17 17 17 17 16 16 16 16 15 14 12 11 11 12 14 14 12 10 11 13 15 14 14 14 14 14 14 14 14 14 14 15
14 13 14 14 14 13 14 15 16 17 17 16 16 17 17 17 16 16 16 15 16 15 15 15 14 14 12 12 13 12 11 13 14 13 11 11 11 14 15 16 16 17 18 18 19 19 18 18 18 18 17 17 17 17 17 17 17 16 16 16 15 15 14 12 10 9 9 10 11 8 8 10 10 13 12 13 13 14 14 14 14 15 15 17 17
13 12 13 13 13 14 13 14 16 17 17 17 18 18 18 18 17 16 15 15 15 15 14 14 14 14 13 13 13 12 10 10 12 12 10 10 10 14 14 15 16 17 18 18 18 17 17 17 17 17 17 16 16 16 16 16 16 16 15 14 14 13 12 10 8 7 4 3 10 4 7 9 9 9 13 13 13 13 13 14 14 14 16 18 18
14 12 12 13 12 14 14 14 16 17 17 17 18 17 17 17 16 15 15 15 15 14 14 14 14 14 14 14 13 12 10 9 9 9 9 8 9 13 15 14 15 16 17 17 16 15 15 15 15 15 16 16 16 16 16 15 15 15 15 14 14 13 11 9 7 2 3 7 6 6 7 10 9 8 14 13 13 13 13 14 14 13 13 14 15
12 11 12 12 11 15 13 14 15 16 16 16 16 16 17 17 16 15 15 15 14 14 14 14 13 14 14 14 13 13 12 10 8 6 9 9 9 11 14 15 15 15 16 16 14 14 13 14 13 14 15 16 15 15 15 15 15 15 14 14 13 12 10 9 6 3 8 4 4 7 7 9 10 9 11 12 11 11 12 13 12 11 11 12 12
13 13 11 12 13 17 13 14 15 16 16 16 16 16 16 16 16 16 15 15 14 15 15 14 14 14 14 14 14 12 12 10 8 6 6 8 8 8 11 13 13 13 13 14 12 12 12 12 12 12 13 14 15 14 14 14 14 14 14 14 13 12 9 8 8 8 4 7 8 7 9 9 9 9 10 9 10 11 11 12 14 13 12 12 12
12 12 11 11 13 16 14 13 14 16 16 16 15 16 16 16 16 16 15 15 15 15 14 14 14 14 14 14 13 13 11 9 6 7 8 8 8 9 9 11 13 13 13 13 12 11 11 10 11 12 13 14 14 13 13 13 14 14 14 14 12 10 8 7 8 2 8 8 10 11 10 11 10 9 11 11 11 13 16 19 16 13 13 14 15
12 11 11 11 17 14 14 14 14 16 17 16 16 15 16 16 15 15 16 15 15 15 15 14 14 14 13 13 12 11 10 9 7 9 10 11 10 8 9 11 12 12 12 11 10 10 10 10 11 12 13 14 14 13 12 13 13 13 13 13 11 8 5 5 7 9 9 11 10 10 11 10 9 10 12 11 13 14 13 13 12 13 15 15 16
12 11 10 11 17 13 13 14 14 15 17 16 15 16 16 16 15 15 15 15 14 15 14 14 14 14 14 14 14 13 12 10 9 10 10 11 11 10 11 12 11 11 11 11 10 9 9 11 12 12 13 13 13 13 12 12 12 13 12 12 9 5 5 8 5 8 9 11 11 10 11 11 11 12 14 13 13 14 13 14 15 16 16 16 15
12 11 11 14 14 13 13 13 14 15 15 17 15 16 16 16 15 14 13 13 13 13 12 12 12 12 12 14 14 14 12 11 11 11 11 10 10 10 10 10 11 10 10 10 10 9 10 10 11 12 12 13 13 13 12 12 12 12 12 10 7 4 4 6 8 9 9 10 10 11 11 11 11 13 13 13 13 13 12 13 14 14 15 15 14
11 11 12 13 12 15 12 13 13 14 15 15 15 15 15 15 15 13 13 12 12 12 11 11 10 10 10 11 12 12 13 12 11 10 11 10 10 10 10 10 11 10 10 10 10 10 10 10 11 12 12 12 12 12 13 12 12 11 11 9 6 4 4 7 9 9 9 9 10 11 11 10 10 11 11 12 11 11 11 12 12 13 14 14 12
11 13 12 13 14 14 15 12 12 12 13 13 13 13 13 13 13 12 12 12 12 12 11 10 10 9 11 13 13 14 13 12 12 11 11 11 10 10 10 10 10 10 9 9 9 9 10 10 11 11 12 12 11 12 12 13 12 11 10 8 6 5 6 6 6 8 9 9 9 10 10 9 10 9 10 10 10 10 10 11 11 12 12 13 12
11 12 13 13 14 13 13 14 11 11 11 12 12 13 13 13 13 12 12 11 11 12 11 10 10 9 11 12 12 13 12 12 12 11 10 10 10 10 9 10 10 9 9 9 9 9 9 10 11 11 12 11 11 11 12 12 12 11 9 6 3 2 6 3 6 7 7 8 8 9 9 9 7 9 10 11 10 10 9 9 10 10 10 11 12
11 11 12 13 14 13 12 13 13 11 10 10 11 12 12 12 12 12 12 11 11 11 11 10 9 9 10 10 11 11 12 12 12 11 10 9 9 9 9 10 10 10 10 9 8 8 9 10 11 11 11 11 11 11 11 12 12 11 9 7 4 2 3 2 6 6 6 7 7 8 8 8 11 11 10 9 9 10 9 10 10 10 11 11 11
10 10 10 12 12 12 11 12 14 12 13 11 10 10 10 11 11 11 11 10 10 10 10 10 10 10 10 10 9 10 12 12 12 11 10 9 9 9 10 10 10 10 9 9 8 7 8 10 11 11 11 11 12 11 11 11 11 11 9 8 4 0 0 2 6 6 7 6 8 8 8 11 10 10 11 11 10 10 10 10 10 10 11 11 11
10 9 10 10 10 10 11 11 12 12 13 10 11 11 9 11 11 11 11 11 10 10 10 10 10 10 10 9 10 11 12 13 12 11 10 10 8 9 9 10 10 10 9 7 7 6 8 9 10 11 11 11 11 11 11 11 11 10 9 8 5 2 4 3 6 6 7 6 6 8 9 9 10 10 11 10 10 9 10 10 11 11 11 10 11
8 7 10 9 11 8 10 10 11 12 11 10 10 12 11 10 11 11 11 10 10 9 9 9 10 11 11 11 12 13 13 12 13 11 11 10 9 7 9 9 9 8 8 6 6 6 8 10 10 10 11 11 11 10 10 11 11 11 9 8 6 9 3 4 5 5 6 7 7 8 10 9 10 10 10 10 10 10 9 9 9 9 9 10 11
8 10 8 9 10 12 9 9 10 11 11 11 10 11 12 11 11 10 10 9 10 9 9 10 10 11 11 9 8 8 10 9 10 10 12 9 9 10 9 9 8 8 7 6 5 7 8 11 11 9 10 11 10 10 9 9 10 10 10 9 10 5 4 4 4 5 6 6 7 8 9 9 9 10 10 9 9 9 10 9 8 10 10 10 9
7 8 9 9 8 9 8 8 7 10 10 8 8 9 11 11 11 12 11 12 11 11 11 11 12 10 11 10 8 7 7 8 8 10 8 11 9 10 9 8 8 7 6 6 6 7 9 10 11 11 11 11 12 7 8 8 8 9 9 10 7 4 3 3 3 5 6 6 8 9 9 9 9 9 9 9 9 10 10 9 9 9 9 9 9
8 7 7 10 9 8 10 9 10 10 11 9 8 9 11 10 11 10 8 11 12 12 11 10 10 10 11 10 5 2 6 6 6 7 6 9 11 11 11 9 8 7 6 6 6 8 9 10 12 12 11 12 9 6 6 6 5 7 9 8 3 2 4 3 4 4 5 7 7 10 8 8 8 9 8 7 8 9 9 9 9 10 9 9 9
7 8 8 8 9 8 9 8 9 11 9 7 7 8 9 8 8 8 8 8 9 9 9 10 8 9 8 8 6 7 6 5 5 7 10 9 10 11 11 11 10 7 7 7 7 7 10 10 11 12 10 9 4 5 6 6 6 6 4 2 3 4 3 3 3 5 5 7 8 9 8 7 8 9 9 8 9 9 8 8 9 9 9 9 9
6 6 7 8 9 8 8 8 8 9 9 7 7 7 8 7 6 7 7 7 7 8 6 6 6 7 8 1 0 3 7 4 3 5 6 6 8 8 9 8 8 8 9 7 7 8 9 9 8 10 8 6 4 3 3 5 4 4 2 2 4 3 3 3 4 4 5 7 8 6 7 6 7 7 7 8 8 8 8 8 8 8 9 8 8
4 5 6 7 7 8 8 7 8 8 8 6 6 6 7 6 6 6 6 5 6 5 6 5 6 6 5 7 7 7 3 4 6 7 5 5 5 6 7 6 7 8 7 6 7 8 7 8 9 9 6 4 4 3 3 4 4 4 3 3 4 3 3 4 4 4 5 6 7 6 6 5 5 7 8 8 7 7 8 7 7 8 8 8 8
4 5 5 5 7 7 7 7 7 6 6 4 5 5 5 5 5 5 6 6 4 6 6 5 5 5 5 5 4 4 4 3 4 5 5 4 4 4 4 6 7 6 6 5 6 6 6 6 7 7 5 5 5 4 4 4 3 4 4 4 3 4 4 4 4 3 4 6 7 5 5 5 4 4 7 7 7 8 8 8 8 7 7 8 8
5 5 5 5 6 6 7 7 5 5 5 5 5 3 3 4 5 5 5 5 7 6 6 5 5 5 5 4 4 5 4 4 2 4 4 4 4 3 3 4 5 5 5 5 6 7 6 5 6 6 6 5 5 4 4 4 4 3 5 4 4 4 3 3 3 4 4 4 5 6 4 5 5 4 4 6 7 8 8 8 8 8 7 7 7
4 5 5 5 5 6 6 6 5 5 5 4 4 5 2 5 4 5 5 4 5 5 5 5 5 5 5 5 6 5 5 4 5 5 4 3 2 4 3 4 4 5 5 5 6 6 6 5 6 6 5 4 5 5 4 5 4 4 4 4 3 4 3 3 4 4 3 4 4 7 5 5 6 5 6 5 7 7 8 7 7 7 7 7 7
4 4 4 4 4 5 5 6 6 5 5 5 4 4 4 6 5 5 4 5 4 4 5 5 4 4 4 5 5 5 4 3 4 4 5 4 4 3 3 4 5 5 6 6 6 6 7 6 6 5 5 4 4 5 4 5 5 4 4 5 5 4 2 4 3 3 3 3 5 6 4 4 1 6 2 7 7 7 8 8 7 7 6 7 7
2 4 3 3 3 4 4 4 5 5 4 5 4 4 4 5 5 5 5 5 5 4 5 4 5 5 5 5 5 5 5 5 4 5 5 5 4 3 4 4 5 5 5 6 6 7 7 6 7 6 5 5 5 4 4 4 4 5 5 6 5 4 2 2 3 3 4 4 5 6 6 1 3 3 1 7 7 7 7 7 7 8 7 7 7
2 2 2 3 3 2 2 3 4 4 3 4 4 5 5 4 5 5 5 5 5 4 4 4 5 5 5 5 5 5 5 4 5 7 5 4 4 4 5 5 5 5 6 6 7 6 6 7 7 6 6 5 5 4 3 4 4 5 5 5 4 4 4 3 3 3 3 4 4 5 6 6 5 7 11 9 7 5 5 6 6 7 8 7 7
3 2 3 3 3 2 2 3 3 4 4 4 4 4 4 4 4 4 3 4 4 4 4 4 4 4 4 4 4 5 5 5 5 5 5 5 5 5 5 4 4 4 5 6 7 7 7 7 8 7 6 5 6 5 4 4 5 5 4 5 4 4 4 4 3 3 3 4 4 5 5 6 8 11 11 8 7 4 5 3 5 3 9 7 8
4 4 4 4 3 2 2 2 3 4 4 4 4 4 4 3 3 3 3 3 2 2 3 3 3 3 4 4 6 7 7 6 6 5 5 5 5 5 5 5 5 4 5 6 7 7 7 7 8 8 7 6 7 7 5 4 5 4 4 5 4 4 4 4 4 3 3 4 4 4 5 5 6 6 8 11 8 6 6 3 2 3 1 8 8
4 4 4 4 4 3 3 2 1 3 4 5 4 4 4 4 4 3 2 2 2 3 3 3 3 3 4 5 6 6 7 6 5 5 6 6 5 5 6 6 5 5 5 6 7 7 7 8 7 8 7 7 7 7 7 6 6 6 5 4 4 4 3 4 4 4 4 3 4 4 4 4 4 5 6 5 8 8 7 6 6 5 5 3 7
4 5 5 4 4 4 4 3 4 3 3 4 4 4 4 4 4 3 3 3 3 3 3 3 3 3 3 4 5 6 5 6 6 6 5 5 6 6 6 6 6 5 6 6 7 8 7 8 8 8 8 8 8 8 7 7 7 6 5 5 4 4 4 4 4 4 4 4 5 5 4 4 4 4 3 5 5 6 9 8 7 10 8 8 7
6 6 6 5 4 5 4 3 3 4 4 4 5 5 5 5 4 3 3 3 3 3 3 4 3 3 3 4 5 5 6 5 6 7 6 5 6 5 5 6 6 6 6 6 7 7 8 7 8 9 8 8 8 8 7 6 5 6 6 6 5 5 3 2 4 3 3 4 4 5 4 4 4 3 5 3 4 7 7 7 6 7 9 9 9
7 6 6 5 4 2 4 2 3 3 3 5 5 5 5 5 4 3 3 3 3 3 2 3 4 3 4 5 6 6 5 6 6 5 5 5 6 6 7 6 6 6 6 6 7 6 7 7 7 7 7 7 8 8 7 7 6 6 6 6 5 4 3 4 4 3 4 5 4 5 5 3 3 4 3 3 2 2 5 7 8 7 7 8 8
5 5 5 5 4 3 3 3 1 3 4 5 5 5 5 5 4 4 4 4 3 2 3 6 5 4 4 3 5 4 7 5 5 5 5 5 6 6 6 7 7 7 6 7 6 7 7 8 9 8 6 7 7 7 6 6 6 5 6 6 5 5 5 5 4 5 4 5 5 4 3 4 4 5 3 3 3 3 3 4 7 6 7 8 10
5 5 7 5 5 5 5 4 4 4 4 5 5 5 5 5 5 5 6 5 5 4 7 8 7 7 7 7 7 6 5 6 7 8 8 8 8 7 7 8 7 6 7 7 8 8 9 9 8 8 7 8 7 6 6 6 5 6 5 6 5 5 5 5 6 5 5 5 5 5 5 4 4 4 4 3 3 2 2 2 2 3 5 8 7
5 5 7 7 6 6 6 5 3 3 3 4 4 4 5 5 5 5 5 4 5 6 8 9 7 7 8 8 8 7 7 9 8 9 9 9 8 7 7 7 7 6 6 6 7 5 4 6 6 5 7 8 7 6 7 6 6 6 5 6 5 3 5 5 6 7 6 5 5 5 4 4 5 4 4 4 3 3 2 2 3 3 4 6 7
7 7 6 6 7 6 5 6 5 5 4 3 4 5 5 5 5 4 4 4 5 7 8 9 8 5 6 7 8 7 7 7 7 9 9 10 9 7 8 8 8 8 6 7 7 4 4 4 4 6 6 7 7 7 7 8 7 7 6 5 4 4 4 7 7 9 7 6 6 6 5 5 5 4 3 4 4 4 4 4 3 2 2 3 5
7 6 5 6 6 5 4 4 4 5 5 5 4 4 5 5 5 4 5 5 7 7 8 7 5 6 7 9 9 8 9 10 10 10 9 10 10 8 7 7 7 6 6 8 6 7 5 4 6 7 6 6 6 7 9 10 7 7 8 7 5 6 6 6 6 8 7 6 5 5 5 5 6 5 5 4 4 3 3 3 3 3 3 3 4
8 9 8 8 6 3 5 5 4 3 3 4 5 5 6 5 5 6 6 7 6 6 7 8 7 8 9 9 9 9 10 10 11 11 11 10 10 10 9 9 8 6 7 7 8 6 7 8 6 5 7 7 6 8 8 10 7 8 8 9 5 6 9 9 6 8 8 8 7 6 5 6 5 7 5 6 4 4 3 4 4 3 3 4 4
9 9 9 8 6 8 7 2 2 4 6 6 6 5 4 6 6 6 7 7 7 6 6 7 7 6 5 8 10 10 10 10 10 9 9 9 10 10 9 9 9 7 7 7 7 7 8 9 8 8 8 6 7 6 7 5 5 5 1 2 2 4 8 7 10 7 8 9 9 7 6 6 8 7 6 5 5 4 4 5 4 4 4 4 5
9 9 8 7 7 7 6 5 4 1 2 5 6 5 4 5 6 5 5 5 6 5 6 6 7 8 7 7 9 10 10 8 9 9 10 9 8 9 10 10 9 9 9 9 9 8 10 10 10 6 7 5 5 6 6 7 6 5 3 3 4 5 6 7 9 7 9 8 7 9 9 8 8 7 6 6 7 5 5 5 5 4 4 4 4
10 9 8 8 8 6 6 5 4 4 4 3 3 2 3 4 5 6 6 5 5 5 5 5 6 6 6 5 7 8 9 9 10 9 10 10 9 9 9 9 8 9 9 10 10 9 10 9 7 8 8 7 6 6 8 7 6 7 6 6 7 6 3 6 8 5 8 8 7 8 9 8 4 7 8 8 7 5 4 4 5 5 5 4 4
10 10 10 9 11 11 10 7 4 4 4 5 5 4 5 5 6 7 6 7 7 7 6 6 5 6 6 6 5 6 7 8 9 10 11 10 9 8 8 9 8 8 7 9 11 8 7 7 9 9 8 8 9 8 7 8 10 8 6 6 8 8 5 3 6 7 7 9 9 6 7 8 9 7 7 7 8 6 5 4 6 6 5 6 5
11 10 10 10 10 10 10 10 9 8 6 6 5 5 6 7 6 6 6 6 6 6 6 5 5 6 7 7 7 7 8 9 10 11 11 9 8 8 8 9 9 8 8 10 10 10 9 8 10 11 9 8 8 7 8 8 8 9 7 10 8 7 8 6 6 4 5 6 7 9 10 7 5 7 7 6 6 7 6 6 6 6 6 5 4
11 11 11 10 10 10 11 10 11 8 8 9 8 7 6 6 6 7 8 7 6 6 6 7 7 6 7 7 6 7 7 7 8 10 9 9 9 9 9 10 9 9 9 9 11 11 10 11 10 8 9 10 9 9 10 8 8 7 6 7 9 8 5 7 11 8 5 4 7 11 10 10 9 8 5 6 8 8 7 6 7 7 6 6 5
11 11 11 10 10 10 10 10 10 9 9 10 9 8 7 6 6 8 9 9 8 7 7 8 8 6 6 6 6 6 6 6 6 8 9 9 9 8 9 10 9 8 8 9 9 9 9 10 9 8 11 11 8 10 9 6 4 6 8 9 7 6 7 9 9 9 9 12 9 8 9 10 10 7 10 10 8 9 8 7 7 6 6 6 5
Wind_Direction
156 146 143 132 137 133 130 129 128 129 122 119 118 116 119 122 121 120 124 125 127 129 130 129 128 128 128 126 114 115 119 120 121 122 118 111 115 116 108 101 110 114 116 115 111 110 106 106 104 104 100 96 97 96 93 91 89 94 94 93 90 91 91 87 86 90 90 91 94 93 88 86 80 79 79 80 73 60 55 76 79 73 73 71 71
152 146 139 142 136 133 132 132 132 126 122 119 118 119 121 122 121 125 127 129 131 130 129 128 128 127 127 121 118 122 120 117 113 114 115 120 119 109 108 114 114 114 112 113 111 109 109 105 103 104 104 105 101 98 98 99 98 96 96 90 91 91 89 90 91 96 97 96 94 91 87 84 84 83 80 74 68 62 54 47 51 75 73 72 69
145 144 145 141 138 134 132 131 130 127 125 121 123 123 124 126 127 129 130 132 131 130 128 128 128 127 128 123 124 126 115 115 119 121 126 123 116 112 110 113 115 114 113 113 112 109 106 106 105 102 102 101 100 98 98 98 99 100 99 95 91 91 91 94 98 100 103 103 102 96 92 86 77 75 75 76 76 71 61 59 66 67 75 77 80
143 148 145 139 138 136 133 131 131 130 129 127 126 127 125 126 129 131 133 132 130 127 127 125 123 126 127 120 123 124 123 122 120 121 122 121 120 110 110 110 114 114 113 113 110 109 108 106 107 107 106 105 102 102 101 100 99 96 93 95 98 97 98 99 103 109 118 120 123 119 98 88 81 72 75 78 81 80 79 79 79 79 87 81 80
146 147 142 147 143 138 135 133 130 130 129 131 130 129 129 128 130 133 134 131 129 128 127 125 126 128 125 120 124 121 121 124 126 129 129 124 115 113 111 112 113 112 111 111 110 109 108 107 105 104 102 100 101 99 99 99 99 98 96 95 95 98 99 103 108 113 127 156 167 162 98 89 80 76 81 85 84 84 84 81 80 83 83 81 75
142 142 145 149 148 144 137 134 132 129 129 130 132 132 131 130 132 132 130 128 128 128 126 128 128 130 128 124 123 124 123 117 124 122 123 123 133 116 112 110 109 108 108 107 106 107 105 103 103 102 101 102 100 100 101 101 100 100 97 94 94 92 88 87 84 86 107 187 226 81 86 85 82 86 78 79 81 80 85 83 85 87 90 90 84
142 142 149 148 146 148 141 135 132 130 130 131 132 131 131 131 130 130 128 128 129 129 128 130 132 132 130 126 127 129 126 117 114 125 130 133 129 119 117 114 112 110 109 106 105 107 103 104 105 105 105 104 105 105 106 104 102 99 97 95 93 90 85 80 86 101 240 235 74 74 78 84 91 91 99 92 88 86 81 81 84 80 76 75 76
140 149 152 147 150 142 139 135 132 131 131 131 129 128 128 129 130 128 127 129 129 130 132 133 133 135 133 126 129 131 131 132 119 109 127 128 123 125 124 120 117 115 111 105 101 102 101 99 100 105 106 106 107 107 108 106 103 101 100 98 97 94 89 83 81 40 290 74 85 77 81 93 95 95 88 86 89 96 91 82 81 81 86 97 96
146 150 151 145 139 139 137 135 134 133 131 130 129 129 130 132 132 131 132 131 131 133 134 135 139 138 132 131 134 132 136 135 123 120 117 133 134 129 122 116 113 106 99 95 94 97 97 100 103 107 110 112 111 111 110 110 107 105 104 105 103 100 104 114 122 178 134 95 95 101 98 95 98 94 89 91 102 110 113 115 107 91 78 74 74
147 146 147 145 143 137 137 135 135 133 133 133 132 133 134 134 135 135 134 133 134 137 136 137 136 135 135 135 134 138 135 118 113 105 97 99 95 91 95 97 111 107 102 98 99 99 99 100 102 103 111 115 114 112 111 110 108 105 106 107 108 111 125 174 201 196 86 88 79 72 69 75 84 88 96 90 79 68 61 53 53 65 80 84 82
147 145 151 142 139 136 138 136 135 136 136 136 137 136 137 138 137 138 137 137 141 140 139 140 139 137 136 133 129 131 135 130 120 109 100 97 97 98 96 101 103 107 108 100 99 97 96 96 98 101 110 116 115 115 111 109 108 107 110 110 112 124 162 189 212 97 95 99 101 99 87 89 91 94 93 90 81 74 73 82 86 86 83 82 83
148 146 143 127 128 135 137 137 137 140 140 140 139 140 141 142 141 140 142 143 145 143 144 143 142 142 143 142 139 139 139 136 122 113 110 105 112 112 97 101 107 109 108 106 103 101 97 99 101 106 113 118 117 117 114 108 108 111 113 114 110 135 206 240 114 106 104 92 89 96 106 102 99 94 99 97 94 89 87 87 85 84 82 79 79
150 146 133 126 143 135 140 140 143 143 144 144 143 145 146 145 143 144 146 147 146 146 144 143 146 147 149 143 144 144 138 129 120 115 110 108 112 115 113 116 119 117 114 114 111 106 104 106 108 112 117 120 121 118 115 110 110 114 116 113 121 150 201 228 108 103 102 104 108 103 99 96 96 102 99 101 97 90 86 84 81 78 76 76 76
149 140 137 135 140 142 142 145 145 146 147 147 146 148 146 146 146 145 146 149 147 146 146 146 148 151 138 127 124 125 126 127 126 127 130 130 127 129 130 131 127 123 119 122 117 114 114 117 119 118 121 120 121 121 117 115 113 116 119 118 127 171 180 90 100 102 97 94 89 91 98 103 99 102 104 98 93 95 92 90 85 80 76 75 74
145 141 139 137 140 153 145 144 146 147 147 148 149 147 145 146 145 146 148 150 147 145 147 147 148 141 126 132 130 132 135 133 131 132 138 138 137 138 142 137 133 129 128 128 126 124 123 126 123 122 121 122 122 121 119 117 118 118 121 128 147 191 229 117 111 103 105 110 114 111 98 98 92 102 104 106 100 92 94 92 87 82 77 75 74
145 140 141 142 144 147 153 146 146 146 147 150 150 148 148 145 144 147 149 148 145 147 148 148 147 134 129 136 138 139 139 136 131 133 135 137 135 142 143 145 139 136 139 138 138 136 130 127 128 125 124 123 121 121 121 121 120 120 121 127 162 269 314 101 108 104 101 99 94 94 100 97 97 99 103 105 102 102 98 97 89 82 85 84 87
138 141 142 138 145 153 151 155 151 146 148 150 150 150 149 145 144 143 143 144 145 146 149 151 148 135 135 138 139 140 137 133 130 130 138 134 135 140 148 150 148 146 146 146 145 144 132 131 132 128 124 122 122 121 123 122 122 122 116 109 90 36 299 290 109 108 96 93 104 104 104 110 97 100 100 102 104 103 100 89 87 87 88 91 92
135 137 137 146 147 153 152 151 150 161 154 155 147 148 147 145 140 139 142 144 145 148 151 154 151 138 140 143 142 140 142 137 133 134 134 137 139 145 152 155 153 149 152 151 149 142 136 134 135 131 126 124 122 124 123 124 121 119 119 110 106 254 352 88 95 98 98 101 93 97 96 94 108 101 103 106 106 103 101 103 106 105 95 94 93
135 135 142 148 151 150 155 153 159 163 155 162 160 156 149 147 144 143 144 148 151 151 152 153 149 145 147 149 147 150 153 145 139 136 131 136 134 144 151 156 154 152 152 149 148 140 137 139 137 133 130 125 123 124 125 124 122 123 119 120 126 175 215 146 105 108 114 109 103 97 97 108 115 117 110 107 104 108 102 100 94 91 102 96 87
126 151 151 160 156 153 157 161 162 163 162 158 158 162 153 149 149 145 145 150 154 150 145 146 148 151 161 160 164 169 160 152 145 141 141 132 154 157 144 151 153 148 148 143 148 141 138 141 137 132 128 124 122 124 127 126 128 125 132 137 167 202 199 92 100 91 82 75 83 95 115 126 118 115 112 108 111 103 98 99 108 111 99 99 98
159 161 158 162 167 161 167 165 165 164 162 158 159 160 149 155 152 143 143 148 152 152 145 149 156 164 170 173 176 181 168 155 160 151 146 148 111 118 145 144 148 145 143 139 142 141 140 140 138 126 126 123 121 123 124 130 128 135 135 168 192 218 77 96 100 106 109 118 107 103 114 120 119 116 111 110 114 117 113 116 104 98 98 97 100
163 158 163 156 174 157 180 161 169 169 165 164 160 157 154 174 162 159 163 157 160 161 168 172 174 170 183 178 188 177 180 167 166 146 159 137 137 133 135 141 142 141 129 130 133 139 140 135 134 130 127 128 140 142 134 131 134 137 163 182 214 79 122 102 91 92 93 94 102 103 96 108 121 117 117 122 118 113 111 110 103 106 107 108 103
169 154 159 165 174 171 167 171 185 170 168 166 162 157 161 166 162 164 163 170 164 179 174 177 179 174 180 181 172 209 195 176 163 163 145 135 128 138 132 138 142 139 125 118 124 133 132 132 134 137 137 154 176 140 142 149 144 154 179 210 118 128 93 92 101 93 87 85 97 107 117 115 109 112 111 111 110 109 108 108 112 110 109 104 105
162 160 173 174 171 169 174 174 177 167 172 169 165 161 160 163 165 164 164 172 173 185 178 182 180 180 173 178 173 197 249 160 140 143 134 145 135 137 139 136 136 138 137 139 122 121 128 132 136 140 160 188 156 162 150 146 149 179 193 155 120 115 135 127 94 81 93 104 98 115 122 121 113 118 120 125 126 119 116 119 115 108 104 109 108
157 162 165 174 173 171 173 174 172 166 185 168 169 160 154 183 164 163 171 173 177 181 184 195 181 179 184 124 161 256 216 119 185 185 182 156 155 156 157 159 157 152 183 164 170 145 169 159 152 174 187 193 164 154 145 133 149 162 146 109 119 128 105 84 85 98 92 89 98 114 98 107 124 116 117 117 117 114 116 112 108 114 116 110 106
150 180 175 169 176 175 182 176 175 177 175 170 165 151 164 161 169 171 177 173 180 185 179 185 183 183 206 187 180 200 189 160 181 220 172 168 175 173 169 159 154 152 190 179 182 174 179 170 171 187 195 178 159 153 135 142 148 154 141 127 122 136 114 87 86 93 92 102 116 112 122 128 122 139 135 132 125 125 116 110 119 118 118 115 119
178 184 172 171 170 179 187 181 179 175 160 156 152 162 167 167 164 177 184 173 199 181 185 187 180 182 201 199 184 184 210 170 192 197 198 181 175 187 179 164 160 160 183 191 188 190 196 179 185 192 188 169 167 147 149 157 156 147 139 145 123 115 119 118 104 99 109 108 107 122 127 141 128 112 119 129 127 123 128 131 120 112 117 119 117
193 182 170 171 172 178 184 179 170 146 152 155 174 134 200 170 159 183 196 168 194 188 192 187 174 190 199 192 196 208 191 195 171 242 243 197 187 179 186 188 170 169 173 205 190 202 205 194 196 194 187 170 159 156 151 154 158 161 140 126 134 120 107 113 98 89 98 109 126 137 124 101 109 114 121 129 135 132 132 129 129 132 135 129 117
186 186 172 169 175 170 183 176 149 159 152 166 179 167 240 191 183 188 192 188 196 196 194 184 194 194 194 202 200 210 208 193 189 198 193 209 197 199 201 197 190 171 174 202 200 198 204 208 201 197 190 169 162 162 169 171 164 170 136 125 112 97 116 106 114 126 119 129 130 120 144 135 157 160 152 143 142 141 138 137 132 136 137 132 132
182 166 174 170 166 163 187 167 159 156 155 174 179 175 177 220 193 191 196 197 199 196 185 198 201 206 200 209 204 207 219 185 203 199 186 194 211 224 220 206 199 181 191 192 200 199 201 205 201 196 188 185 171 169 181 175 179 145 134 121 133 143 147 123 136 123 111 105 95 128 158 162 274 320 331 140 145 145 145 147 149 146 137 122 123
162 168 168 138 151 172 168 158 153 155 165 185 182 186 193 195 195 198 195 203 192 188 194 206 204 210 211 198 209 199 205 217 179 254 213 193 207 225 227 215 210 197 200 195 199 202 201 198 200 191 183 194 180 164 196 177 172 156 142 149 155 142 148 120 117 131 133 131 129 141 141 251 327 302 240 136 151 153 152 147 145 143 135 137 138
166 168 154 115 142 173 169 157 141 149 164 184 181 199 199 203 201 205 207 210 197 198 202 207 220 215 215 205 211 211 212 204 211 206 197 198 201 218 231 228 220 206 205 207 199 204 200 195 198 192 196 194 175 161 180 178 180 180 168 153 143 152 159 144 138 146 146 139 141 147 150 154 121 104 91 92 99 112 149 151 150 147 148 152 160
108 81 83 111 138 141 177 167 155 158 171 185 190 201 207 207 215 216 214 215 208 209 216 210 214 222 221 223 225 226 209 204 203 218 200 205 203 212 230 232 227 221 212 206 213 198 204 194 193 189 187 181 182 158 173 185 187 184 171 152 165 170 162 162 158 160 158 156 161 157 154 158 151 119 109 104 103 110 95 58 24 152 160 165 166
79 112 125 149 129 140 144 174 190 177 188 193 192 214 210 215 228 234 238 235 243 253 234 231 221 235 216 216 225 230 226 217 201 204 216 214 205 211 227 229 232 217 215 202 210 208 206 200 200 200 191 189 184 179 170 177 185 189 175 169 185 171 165 164 169 154 161 170 162 164 158 162 169 163 149 126 126 123 123 119 112 354 57 177 178
59 94 134 136 148 152 143 177 187 217 196 197 203 211 214 224 225 227 241 265 263 259 262 246 233 232 234 220 232 234 234 230 210 202 214 219 205 214 221 228 227 224 220 212 216 213 206 203 199 202 189 196 189 189 189 182 185 191 187 187 186 170 183 175 168 175 174 146 181 157 166 165 169 163 143 146 129 124 127 135 153 207 186 196 218
48 90 105 130 157 154 160 172 164 223 225 207 216 228 225 232 234 227 225 224 243 255 255 258 265 252 252 259 237 237 233 238 229 217 214 237 228 216 216 226 225 226 224 213 216 213 209 206 203 203 193 199 190 186 186 181 188 193 197 200 189 189 189 176 177 194 157 164 180 155 179 170 176 171 163 190 151 123 129 136 160 183 191 205 218
108 123 128 139 147 143 145 154 158 185 209 226 237 233 235 233 234 235 249 236 227 230 239 252 254 272 276 273 264 252 241 232 236 228 228 232 231 230 227 224 225 226 227 226 221 219 204 205 205 208 194 192 185 184 185 184 180 192 195 205 199 197 181 171 192 185 160 191 161 164 176 185 161 148 191 204 156 155 129 132 146 166 189 203 211
105 115 117 126 125 100 104 105 163 193 221 235 232 238 240 246 249 232 226 246 249 251 269 259 256 254 253 266 272 263 255 253 250 248 240 235 238 228 227 225 233 232 228 226 230 226 206 200 196 201 198 197 196 188 186 181 177 185 198 197 201 188 175 198 190 195 195 181 176 171 183 157 175 192 199 197 214 161 152 159 162 171 178 199 202
113 115 114 115 119 124 127 129 241 227 203 220 235 233 235 239 235 233 207 207 226 256 255 248 235 215 219 240 267 294 285 268 251 240 231 232 233 238 234 226 228 232 233 229 223 220 212 202 202 186 194 201 206 184 182 181 179 181 188 191 194 187 193 204 200 201 203 185 175 173 181 171 189 195 195 196 194 180 179 181 181 189 163 174 192
110 114 109 120 132 137 142 152 194 214 234 228 233 239 243 233 232 223 222 199 192 194 227 223 218 224 217 208 216 206 219 234 224 223 225 225 220 225 220 220 225 226 229 230 225 217 206 198 187 178 179 198 204 186 176 178 175 181 179 187 190 193 208 202 211 207 205 186 185 180 181 183 199 186 202 203 191 161 193 189 241 184 152 150 172
85 94 117 120 128 136 140 149 170 213 213 222 235 243 241 239 242 246 245 221 212 212 234 239 228 220 221 225 220 208 203 206 207 220 226 228 225 217 224 221 214 219 217 229 235 229 216 212 177 161 180 191 191 182 178 175 170 170 178 181 175 186 208 217 233 228 202 193 187 185 190 187 201 191 190 206 171 177 192 200 205 200 174 152 165
66 72 75 105 114 120 137 154 163 177 213 235 242 240 249 260 266 248 239 226 216 226 241 248 239 231 232 232 224 209 216 216 212 225 234 235 229 212 215 221 217 222 218 228 215 174 202 220 178 179 202 190 191 184 179 182 185 182 177 182 190 200 210 220 228 215 205 196 194 192 181 194 206 195 198 189 193 180 183 180 194 182 181 162 156
77 82 106 105 108 125 160 172 176 183 183 197 224 242 239 245 244 238 230 223 227 240 246 250 239 231 218 229 234 237 235 234 230 224 226 230 231 226 214 216 212 208 213 221 177 176 189 183 184 191 192 202 190 191 189 197 187 196 195 193 194 202 206 220 216 229 201 202 200 193 180 196 209 202 196 206 189 188 194 155 153 165 169 166 156
56 49 44 59 70 101 146 160 165 203 210 212 228 219 243 260 243 239 241 250 250 233 245 256 249 221 219 223 232 233 239 239 236 231 231 231 228 230 228 218 210 198 200 205 184 178 178 192 190 197 187 187 191 196 204 208 236 184 210 212 190 217 211 205 190 206 199 202 199 198 195 201 236 200 196 208 179 185 184 151 162 163 163 153 149
50 46 43 41 48 44 42 88 170 202 199 208 223 241 224 235 236 236 241 246 253 255 254 258 259 252 235 228 228 228 234 240 251 245 241 237 229 228 224 216 214 198 195 202 186 192 187 183 177 188 194 182 178 195 209 236 254 282 138 173 139 215 237 203 180 188 194 200 204 203 201 196 212 205 202 202 181 179 195 159 151 153 158 153 152
40 39 43 41 35 38 33 20 23 325 234 221 243 265 235 227 228 239 234 242 244 237 239 249 248 251 240 223 239 231 227 237 242 241 238 234 231 229 228 220 210 205 199 208 215 206 192 196 179 169 190 207 171 181 201 218 239 260 193 261 269 251 225 166 167 188 188 212 200 207 197 209 204 199 217 192 197 172 186 151 154 153 159 165 143
28 22 27 28 28 29 26 16 13 358 359 330 312 281 257 258 242 241 251 255 266 261 253 249 263 265 267 248 237 235 231 225 231 235 235 233 227 219 219 223 221 213 200 204 209 196 196 193 159 174 192 192 194 195 201 201 210 236 228 223 259 262 268 188 195 166 187 198 219 202 213 193 197 226 205 200 185 170 183 158 154 162 155 164 144
29 29 26 20 18 19 10 9 12 8 352 333 320 304 274 263 260 254 251 254 253 264 264 255 244 245 259 244 240 235 230 230 224 225 236 238 233 219 211 219 222 218 195 204 207 196 186 180 174 187 192 187 186 191 192 202 198 211 203 209 228 246 277 220 221 187 193 188 197 198 227 208 195 209 213 202 182 167 181 175 173 165 172 159 157
26 24 25 24 22 19 14 8 16 7 1 337 313 303 299 301 293 278 271 265 267 268 267 256 235 234 242 241 232 234 226 226 225 227 233 238 235 221 206 215 213 209 195 203 203 194 184 186 189 193 185 192 199 197 191 201 202 213 195 213 219 230 223 231 238 194 194 184 185 186 198 179 205 200 211 207 189 168 187 193 183 173 159 162 151
27 26 25 25 25 24 20 20 19 5 356 345 340 327 317 300 292 293 281 271 260 258 256 254 243 233 243 250 240 232 232 230 231 232 232 230 231 225 210 205 207 209 205 199 189 179 185 197 192 183 191 196 206 209 210 210 209 216 216 217 221 216 211 219 202 176 217 173 188 195 189 183 191 205 191 209 193 180 192 185 186 184 166 172 155
28 26 25 22 23 24 19 20 19 8 0 350 337 330 323 320 301 288 283 280 281 275 261 256 253 245 244 246 250 250 249 242 237 234 226 224 230 228 222 205 200 207 208 201 188 184 186 195 178 186 212 206 204 205 210 208 214 229 223 225 216 199 210 219 213 197 199 195 202 177 189 191 190 175 202 196 197 186 192 183 194 185 169 178 165